Mankato, MN

4:56 PM CDT on June 24, 2017 (GMT -0500)
Mankato Regional

Weather History for KMKT - October, 2013

Change the Weather History Date:

Saturday, October 19, 2013

  Actual Average Record
Temperature  
Mean Temperature 39 °F -  
Max Temperature 46 °F 55 °F 84 °F (2003)
Min Temperature 32 °F 37 °F 30 °F (2006)
Degree Days  
Heating Degree Days 26    
Moisture  
Dew Point 29 °F    
Average Humidity 71    
Maximum Humidity 87    
Minimum Humidity 46    
Precipitation  
Precipitation 0.10 in - - ()
Sea Level Pressure  
Sea Level Pressure 29.78 in    
Wind  
Wind Speed 9 mph (West)    
Max Wind Speed 24 mph    
Max Gust Speed 29 mph    
Visibility 10 miles    
Events      
Averages and records for this station are not official NWS values.
T = Trace of Precipitation, MM = Missing Value Source: NWS Daily Summary

Daily Weather History Graph

Daily Weather History Graph

Search for Another Location

Airport or City:

Trip Planner

Search our weather history database for the weather conditions in past years. The results will help you decide how hot, cold, wet, or windy it might be!

Date:

Astronomy

Oct. 19, 2013 Rise Set
Actual Time 7:35 AM CDT 6:24 PM CDT
Civil Twilight 7:06 AM CDT 6:53 PM CDT
Nautical Twilight 6:32 AM CDT 7:27 PM CDT
Astronomical Twilight 5:59 AM CDT 8:00 PM CDT
Moon 6:50 PM CDT (10/19) 8:16 AM CDT (10/19)
Length of Visible Light 11h 47m
Length of Day
10h 48m
Waxing Gibbous, 99% of the Moon is Illuminated
Oct 19
Waxing Gibbous
Oct 26
Last Quarter
Nov 3
New
Nov 9
First Quarter
Nov 17
Full

Hourly Weather History & Observations

Time (CDT) Temp. Windchill Dew Point Humidity Pressure Visibility Wind Dir Wind Speed Gust Speed Precip Events Conditions
12:15 AM 39.2 °F 34.2 °F 30.2 °F 70% 29.86 in 10.0 mi West 6.9 mph - N/A   Scattered Clouds
12:35 AM 39.2 °F 33.0 °F 30.2 °F 70% 29.86 in 10.0 mi West 9.2 mph - N/A   Partly Cloudy
12:55 AM 37.4 °F 31.4 °F 30.2 °F 75% 29.85 in 10.0 mi West 8.1 mph - N/A   Clear
1:15 AM 39.2 °F 33.0 °F 30.2 °F 70% 29.85 in 10.0 mi West 9.2 mph - N/A   Clear
1:35 AM 37.4 °F 30.8 °F 30.2 °F 75% 29.85 in 10.0 mi West 9.2 mph - N/A   Clear
1:55 AM 37.4 °F 30.8 °F 30.2 °F 75% 29.84 in 10.0 mi WSW 9.2 mph - N/A   Partly Cloudy
2:15 AM 37.4 °F 30.8 °F 30.2 °F 75% 29.84 in 10.0 mi WSW 9.2 mph - N/A   Scattered Clouds
2:35 AM 35.6 °F 28.6 °F 30.2 °F 81% 29.84 in 10.0 mi WSW 9.2 mph - N/A   Clear
2:55 AM 35.6 °F 29.2 °F 30.2 °F 81% 29.83 in 10.0 mi WSW 8.1 mph - N/A   Clear
3:15 AM 35.6 °F 30.7 °F 30.2 °F 81% 29.82 in 10.0 mi WSW 5.8 mph - N/A   Clear
3:35 AM 35.6 °F 29.9 °F 30.2 °F 81% 29.81 in 10.0 mi WSW 6.9 mph - N/A   Clear
3:55 AM 35.6 °F 29.9 °F 30.2 °F 81% 29.80 in 10.0 mi WSW 6.9 mph - N/A   Clear
4:15 AM 35.6 °F 30.7 °F 30.2 °F 81% 29.80 in 10.0 mi WSW 5.8 mph - N/A   Partly Cloudy
4:35 AM 35.6 °F 29.9 °F 30.2 °F 81% 29.79 in 10.0 mi SW 6.9 mph - N/A   Clear
4:55 AM 35.6 °F 30.7 °F 30.2 °F 81% 29.78 in 10.0 mi SSW 5.8 mph - N/A   Clear
5:15 AM 35.6 °F 30.7 °F 30.2 °F 81% 29.78 in 10.0 mi SSW 5.8 mph - N/A   Scattered Clouds
5:35 AM 35.6 °F 30.7 °F 30.2 °F 81% 29.77 in 10.0 mi SSW 5.8 mph - N/A   Mostly Cloudy
5:55 AM 35.6 °F 30.7 °F 30.2 °F 81% 29.77 in 10.0 mi SSW 5.8 mph - N/A   Mostly Cloudy
6:15 AM 35.6 °F 29.9 °F 28.4 °F 75% 29.77 in 10.0 mi SW 6.9 mph - N/A   Partly Cloudy
6:35 AM 35.6 °F 29.9 °F 30.2 °F 81% 29.76 in 10.0 mi SW 6.9 mph - N/A   Mostly Cloudy
6:55 AM 35.6 °F 29.2 °F 30.2 °F 81% 29.76 in 10.0 mi SW 8.1 mph - N/A   Overcast
7:15 AM 35.6 °F 29.2 °F 30.2 °F 81% 29.76 in 10.0 mi WSW 8.1 mph - N/A   Overcast
7:35 AM 35.6 °F 28.0 °F 30.2 °F 81% 29.76 in 10.0 mi WSW 10.4 mph - N/A   Overcast
7:55 AM 35.6 °F 28.6 °F 30.2 °F 81% 29.75 in 10.0 mi WSW 9.2 mph - N/A   Mostly Cloudy
8:15 AM 35.6 °F 28.6 °F 30.2 °F 81% 29.74 in 10.0 mi SW 9.2 mph - N/A   Overcast
8:35 AM 37.4 °F 30.8 °F 30.2 °F 75% 29.75 in 10.0 mi SW 9.2 mph - N/A   Overcast
8:55 AM 37.4 °F 30.8 °F 30.2 °F 75% 29.75 in 10.0 mi WSW 9.2 mph - N/A   Overcast
9:15 AM 37.4 °F 29.8 °F 32.0 °F 81% 29.74 in 10.0 mi WSW 11.5 mph - N/A   Overcast
9:35 AM 39.2 °F 32.5 °F 33.8 °F 81% 29.74 in 10.0 mi WSW 10.4 mph - N/A   Overcast
9:55 AM 39.2 °F 30.8 °F 33.8 °F 81% 29.75 in 10.0 mi West 15.0 mph - N/A   Overcast
10:15 AM 39.2 °F 32.0 °F 33.8 °F 81% 29.74 in 10.0 mi West 11.5 mph - N/A   Overcast
10:35 AM 41.0 °F 34.3 °F 35.6 °F 81% 29.74 in 10.0 mi West 11.5 mph 16.1 mph N/A   Overcast
10:55 AM 42.8 °F 36.6 °F 35.6 °F 76% 29.74 in 10.0 mi West 11.5 mph - N/A   Overcast
11:15 AM 42.8 °F 36.6 °F 35.6 °F 76% 29.74 in 10.0 mi WNW 11.5 mph - N/A   Overcast
11:35 AM 44.6 °F 38.8 °F 35.6 °F 71% 29.73 in 7.0 mi West 11.5 mph - N/A   Overcast
11:55 AM 44.6 °F 38.4 °F 35.6 °F 71% 29.73 in 10.0 mi West 12.7 mph - N/A   Overcast
12:15 PM 42.8 °F 34.5 °F 35.6 °F 76% 29.74 in 9.0 mi WNW 18.4 mph 23.0 mph 0.06 in   Overcast
12:35 PM 39.2 °F 33.6 °F 35.6 °F 87% 29.73 in 10.0 mi WNW 8.1 mph - 0.09 in   Mostly Cloudy
12:55 PM 44.6 °F 39.2 °F 37.4 °F 76% 29.73 in 10.0 mi West 10.4 mph - 0.09 in   Mostly Cloudy
1:15 PM 44.6 °F 37.2 °F 37.4 °F 76% 29.73 in 10.0 mi WNW 17.3 mph 23.0 mph N/A   Mostly Cloudy
1:35 PM 42.8 °F 37.0 °F 35.6 °F 76% 29.72 in 10.0 mi WNW 10.4 mph - 0.01 in   Mostly Cloudy
1:55 PM 44.6 °F 38.4 °F 37.4 °F 76% 29.72 in 10.0 mi WNW 12.7 mph 19.6 mph 0.01 in   Mostly Cloudy
2:15 PM 44.6 °F 37.2 °F 33.8 °F 66% 29.72 in 10.0 mi NW 17.3 mph 25.3 mph N/A   Mostly Cloudy
2:35 PM - - - N/A% 29.72 in 10.0 mi NW 19.6 mph 27.6 mph N/A   Mostly Cloudy
2:55 PM 46.4 °F 39.8 °F 30.2 °F 53% 29.73 in 10.0 mi NW 16.1 mph 26.5 mph N/A   Mostly Cloudy
3:15 PM 44.6 °F 36.1 °F 28.4 °F 53% 29.74 in 10.0 mi WNW 21.9 mph 25.3 mph N/A   Mostly Cloudy
3:35 PM 44.6 °F 36.4 °F 26.6 °F 49% 29.75 in 10.0 mi WNW 20.7 mph 26.5 mph N/A   Overcast
3:55 PM - - - N/A% 29.75 in 10.0 mi NW 24.2 mph 28.8 mph N/A   Overcast
4:15 PM - - - N/A% 29.76 in 10.0 mi NW 19.6 mph 26.5 mph N/A   Scattered Clouds
4:35 PM 42.8 °F 34.0 °F 24.8 °F 49% 29.78 in 10.0 mi WNW 20.7 mph 25.3 mph N/A   Partly Cloudy
4:55 PM 42.8 °F 34.8 °F 24.8 °F 49% 29.78 in 10.0 mi NW 17.3 mph 25.3 mph N/A   Scattered Clouds
5:15 PM 42.8 °F 34.5 °F 23.0 °F 46% 29.79 in 10.0 mi West 18.4 mph 24.2 mph N/A   Overcast
5:35 PM 42.8 °F 35.4 °F 24.8 °F 49% 29.79 in 10.0 mi NW 15.0 mph 21.9 mph N/A   Overcast
5:55 PM 41.0 °F 33.1 °F 24.8 °F 53% 29.80 in 10.0 mi NW 15.0 mph - N/A   Mostly Cloudy
6:15 PM 39.2 °F 32.5 °F 24.8 °F 56% 29.80 in 10.0 mi NW 10.4 mph - N/A   Partly Cloudy
6:35 PM 39.2 °F 33.0 °F 23.0 °F 52% 29.81 in 10.0 mi WNW 9.2 mph - N/A   Mostly Cloudy
6:55 PM 37.4 °F 30.3 °F 23.0 °F 56% 29.82 in 10.0 mi WNW 10.4 mph - N/A   Scattered Clouds
7:15 PM 37.4 °F 29.8 °F 23.0 °F 56% 29.82 in 10.0 mi NW 11.5 mph - N/A   Clear
7:35 PM 37.4 °F 30.8 °F 23.0 °F 56% 29.82 in 10.0 mi WNW 9.2 mph - N/A   Clear
7:55 PM 35.6 °F 30.7 °F 23.0 °F 60% 29.83 in 10.0 mi WNW 5.8 mph - N/A   Clear
8:15 PM 35.6 °F 30.7 °F 23.0 °F 60% 29.82 in 10.0 mi WNW 5.8 mph - N/A   Clear
8:35 PM 35.6 °F 31.7 °F 23.0 °F 60% 29.82 in 10.0 mi NW 4.6 mph - N/A   Clear
8:55 PM 35.6 °F 30.7 °F 23.0 °F 60% 29.83 in 10.0 mi WNW 5.8 mph - N/A   Clear
9:15 PM 33.8 °F 28.6 °F 23.0 °F 65% 29.83 in 10.0 mi WNW 5.8 mph - N/A   Clear
9:35 PM 33.8 °F 29.6 °F 23.0 °F 65% 29.83 in 10.0 mi WNW 4.6 mph - N/A   Clear
9:55 PM 32.0 °F - 23.0 °F 69% 29.83 in 10.0 mi Calm Calm - N/A   Clear
10:15 PM 33.8 °F 30.8 °F 23.0 °F 65% 29.83 in 10.0 mi WSW 3.5 mph - N/A   Clear
10:35 PM 33.8 °F 29.6 °F 23.0 °F 65% 29.83 in 10.0 mi WSW 4.6 mph - N/A   Clear
10:55 PM 32.0 °F 28.7 °F 23.0 °F 69% 29.83 in 10.0 mi WSW 3.5 mph - N/A   Clear
11:15 PM 33.8 °F - 24.8 °F 70% 29.82 in 10.0 mi Calm Calm - N/A   Clear
11:35 PM 32.0 °F 28.7 °F 24.8 °F 75% 29.82 in 10.0 mi SW 3.5 mph - N/A   Clear
11:55 PM 32.0 °F - 24.8 °F 75% 29.81 in 10.0 mi Calm Calm - N/A   Clear